Miscellaneous Local Product
Issued by NWS Hastings, NE

Home | Current Version | Previous Version | Text Only | Print | Product List | Glossary Off
Versions: 1 2 3 4 5 6 7 8 9 10 11 12 13 14 15 16 17 18 19 20 21 22 23 24 25 26 27 28 29 30 31 32 33 34 35 36 37 38 39 40 41 42 43 44 45 46 47 48 49 50

000
AXUS43 KGID 281102
MISGRI

GID CWA HOURLY WEATHER ROUNDUP
NATIONAL WEATHER SERVICE HASTINGS NE
600 AM CDT SUN MAY 28 2017

NOTE: "FAIR" INDICATES FEW OR NO CLOUDS BELOW 12,000 FEET WITH NO
SIGNIFICANT WEATHER AND/OR OBSTRUCTIONS TO VISIBILITY.

...SOUTH CENTRAL NEBRASKA...

CITY           SKY/WX    TMP DP  RH WIND       PRES   REMARKS
GRAND ISLAND   CLEAR     52  49  89 W10       29.96S
HASTINGS       CLEAR     53  48  83 W12       29.98S
KEARNEY        CLEAR     54  45  71 W9        29.99S
ORD            CLEAR     46  41  82 NW7       29.96R
YORK           CLEAR     54  50  87 W10       29.93S
AURORA         CLEAR     54  49  86 W12       29.95S
LEXINGTON      PTCLDY    46  43  91 NW8       30.02S
HOLDREGE       CLEAR     51  45  77 W9        30.00S
HEBRON         CLEAR     54  51  90 W3        29.95F

...NEBRASKA PANHANDLE...

CITY           SKY/WX    TMP DP  RH WIND       PRES   REMARKS
CHADRON        PTCLDY    45  40  82 W7        30.08F
ALLIANCE       CLEAR     39  37  92 W10       30.10S WCI  32
SCOTTSBLUFF    CLEAR     42  38  85 NW8       30.15S
SIDNEY         PTCLDY    43  38  82 W13       30.16R

...WESTERN AND NORTH CENTRAL NEBRASKA...

CITY           SKY/WX    TMP DP  RH WIND       PRES   REMARKS
VALENTINE      CLEAR     49  42  77 W8        29.98S
AINSWORTH      CLEAR     51  45  78 W8        29.97S
ONEILL         CLEAR     51  45  79 W9        29.93R
BROKEN BOW     CLEAR     53  44  71 NW12      29.99R
IMPERIAL       CLEAR     48  40  73 W13       30.09R
NORTH PLATTE   CLEAR     42  41  96 NW6       30.05R
MCCOOK         CLEAR     47  45  93 W10       30.06R

...EASTERN NEBRASKA...

CITY           SKY/WX    TMP DP  RH WIND       PRES   REMARKS
NORFOLK        CLEAR     49  45  86 W7        29.90S
SO SIOUX CITY  CLEAR     53  49  86 NW8       29.86F
TEKAMAH        CLEAR     53  48  83 CALM      29.87S
ALBION         CLEAR     50  44  80 NW7       29.93S
OMAHA EPPLEY   PTCLDY    55  50  83 VRB3      29.88S
OFFUTT AFB     CLEAR     54  50  87 W3        29.88F
MILLARD        CLEAR     53  52  96 CALM      29.89F FOG
LINCOLN        CLEAR     53  50  89 CALM      29.93S
NEBRASKA CITY  CLEAR     55  53  90 W7        29.90S
BEATRICE       CLEAR     53  52  95 W7        29.92F
FALLS CITY     CLEAR     56  53  90 NW7       29.89S

...NORTHERN KANSAS...

CITY           SKY/WX    TMP DP  RH WIND       PRES   REMARKS
GOODLAND       CLEAR     47  43  86 W14       30.12S
HILL CITY      CLEAR     53  49  86 NW12      30.04S
NORTON         SUNNY     50  43  76 W10       30.03S
PHILLIPSBURG   CLEAR     52  52 100 W8        30.01S
SMITH CENTER   CLEAR     46  46 100 NW7       29.99F
HAYS           PTCLDY    53  50  89 NW7       30.02S
RUSSELL        CLEAR     53  50  89 NW10      29.99R
CONCORDIA      CLEAR     53  52  96 W10       29.96S
SALINA         CLEAR     57  53  86 NW3       29.96F
TOPEKA         CLEAR     59  58  96 W6        29.90R



USA.gov is the U.S. government's official web portal to all federal, state and local government web resources and services.